| time (UTC) | temp F | wind direction | speed MPH | gust MPH | rain 1hr in | rain 24hr in | rain mn in | humidity % | barometer mb |
| 20260906090804 | 66 | 351 | 2.0 | 5.0 | 0.00 | 0.00 | 0.00 | 79 | 1011.0 |
| 20260906090304 | 66 | 29 | 2.0 | 5.0 | 0.00 | 0.00 | 0.00 | 80 | 1010.9 |
| 20260906085804 | 66 | 58 | 1.0 | 3.0 | 0.00 | 0.00 | 0.00 | 80 | 1010.9 |
| 20260906085306 | 66 | 4 | 0.0 | 3.0 | 0.00 | 0.00 | 0.00 | 80 | 1010.8 |
| 20260906084804 | 66 | 13 | 2.0 | 3.0 | 0.00 | 0.00 | 0.00 | 80 | 1010.8 |
| 20260906084304 | 66 | 15 | 2.0 | 5.0 | 0.00 | 0.00 | 0.00 | 80 | 1010.9 |
| 20260906083804 | 66 | 357 | 2.0 | 6.0 | 0.00 | 0.00 | 0.00 | 81 | 1010.9 |
| 20260906083303 | 66 | 18 | 5.0 | 9.0 | 0.00 | 0.00 | 0.00 | 81 | 1010.9 |
| 20260906082804 | 66 | 3 | 5.0 | 9.0 | 0.00 | 0.00 | 0.00 | 81 | 1010.9 |
| 20260906081804 | 65 | 22 | 4.0 | 7.0 | 0.00 | 0.00 | 0.00 | 81 | 1010.9 |
| 20260906081304 | 65 | 358 | 3.0 | 6.0 | 0.00 | 0.00 | 0.00 | 81 | 1010.8 |
| 20260906080803 | 65 | 327 | 2.0 | 5.0 | 0.00 | 0.00 | 0.00 | 81 | 1010.7 |
| 20260906080304 | 65 | 10 | 3.0 | 5.0 | 0.00 | 0.00 | 0.00 | 81 | 1010.7 |
| 20260906075804 | 65 | 3 | 2.0 | 6.0 | 0.00 | 0.00 | 0.00 | 81 | 1010.6 |
| 20260906075306 | 65 | 350 | 3.0 | 6.0 | 0.00 | 0.00 | 0.00 | 81 | 1010.6 |
| 20260906074803 | 65 | 358 | 3.0 | 6.0 | 0.00 | 0.00 | 0.00 | 80 | 1010.6 |
| 20260906074303 | 66 | 335 | 3.0 | 5.0 | 0.00 | 0.00 | 0.00 | 80 | 1010.6 |
| 20260906073804 | 66 | 6 | 3.0 | 6.0 | 0.00 | 0.00 | 0.00 | 80 | 1010.6 |
| 20260906073304 | 66 | 353 | 3.0 | 6.0 | 0.00 | 0.00 | 0.00 | 80 | 1010.5 |
| 20260906072804 | 66 | 349 | 2.0 | 3.0 | 0.00 | 0.00 | 0.00 | 79 | 1010.6 |
| 20260906072306 | 66 | 349 | 1.0 | 3.0 | 0.00 | 0.00 | 0.00 | 79 | 1010.6 |
| 20260906071304 | 66 | 349 | 2.0 | 3.0 | 0.00 | 0.00 | 0.00 | 78 | 1010.4 |
| 20260906070804 | 66 | 349 | 2.0 | 3.0 | 0.00 | 0.00 | 0.00 | 78 | 1010.4 |
| 20260906070304 | 66 | 349 | 2.0 | 5.0 | 0.00 | 0.00 | 0.00 | 78 | 1010.5 |
| 20260906065803 | 66 | 349 | 1.0 | 3.0 | 0.00 | 0.00 | 0.00 | 78 | 1010.6 |
| 20260906065305 | 67 | 349 | 3.0 | 5.0 | 0.00 | 0.00 | 0.00 | 78 | 1010.5 |
| 20260906064804 | 67 | 349 | 2.0 | 3.0 | 0.00 | 0.00 | 0.00 | 77 | 1010.6 |
| 20260906064304 | 67 | 354 | 3.0 | 5.0 | 0.00 | 0.00 | 0.00 | 77 | 1010.7 |
| 20260906063804 | 67 | 323 | 2.0 | 5.0 | 0.00 | 0.00 | 0.00 | 77 | 1010.7 |
| 20260906063304 | 67 | 340 | 2.0 | 3.0 | 0.00 | 0.00 | 0.00 | 77 | 1010.7 |
| 20260906062803 | 68 | 340 | 2.0 | 5.0 | 0.00 | 0.00 | 0.00 | 77 | 1010.7 |
| 20260906062306 | 68 | 13 | 1.0 | 2.0 | 0.00 | 0.00 | 0.00 | 76 | 1010.7 |
| 20260906061305 | 68 | 351 | 2.0 | 3.0 | 0.00 | 0.00 | 0.00 | 75 | 1010.6 |
| 20260906060804 | 68 | 351 | 1.0 | 3.0 | 0.00 | 0.00 | 0.00 | 75 | 1010.6 |
| 20260906060304 | 68 | 351 | 1.0 | 2.0 | 0.00 | 0.00 | 0.00 | 75 | 1010.5 |
| 20260906055804 | 68 | 0 | 1.0 | 3.0 | 0.00 | 0.00 | 0.00 | 75 | 1010.5 |
| 20260906055306 | 68 | 13 | 0.0 | 1.0 | 0.00 | 0.00 | 0.00 | 75 | 1010.6 |
| 20260906054804 | 69 | 13 | 1.0 | 3.0 | 0.00 | 0.00 | 0.00 | 75 | 1010.7 |
| 20260906054304 | 69 | 333 | 2.0 | 5.0 | 0.00 | 0.00 | 0.00 | 75 | 1010.6 |
| 20260906053303 | 69 | 18 | 3.0 | 3.0 | 0.00 | 0.00 | 0.00 | 75 | 1010.7 |
| 20260906052803 | 69 | 2 | 3.0 | 6.0 | 0.00 | 0.00 | 0.00 | 75 | 1010.8 |
| 20260906052305 | 69 | 6 | 3.0 | 7.0 | 0.00 | 0.00 | 0.00 | 75 | 1010.8 |
| 20260906051804 | 68 | 357 | 3.0 | 6.0 | 0.00 | 0.00 | 0.00 | 75 | 1010.8 |
| 20260906051304 | 68 | 10 | 3.0 | 6.0 | 0.00 | 0.00 | 0.00 | 75 | 1010.8 |
| 20260906050303 | 68 | 7 | 3.0 | 6.0 | 0.00 | 0.00 | 0.00 | 75 | 1010.9 |
| 20260906045804 | 68 | 12 | 3.0 | 8.0 | 0.00 | 0.00 | 0.00 | 75 | 1010.9 |
| 20260906045306 | 68 | 16 | 2.0 | 6.0 | 0.00 | 0.00 | 0.00 | 75 | 1011.0 |
| 20260906044304 | 69 | 336 | 2.0 | 6.0 | 0.00 | 0.00 | 0.00 | 75 | 1011.0 |
| 20260906043804 | 69 | 349 | 1.0 | 3.0 | 0.00 | 0.00 | 0.00 | 75 | 1011.0 |
| 20260906043304 | 69 | 351 | 2.0 | 5.0 | 0.00 | 0.00 | 0.00 | 75 | 1011.0 |
| 20260906042803 | 69 | 323 | 3.0 | 3.0 | 0.00 | 0.00 | 0.00 | 75 | 1010.9 |
| 20260906042306 | 69 | 352 | 2.0 | 3.0 | 0.00 | 0.00 | 0.00 | 75 | 1010.9 |
| 20260906041304 | 69 | 347 | 3.0 | 3.0 | 0.00 | 0.00 | 0.00 | 75 | 1010.9 |
| 20260906040803 | 69 | 346 | 3.0 | 6.0 | 0.00 | 0.00 | 0.00 | 75 | 1010.8 |
| 20260906040303 | 69 | 347 | 3.0 | 6.0 | 0.00 | 0.00 | 0.00 | 76 | 1010.8 |
| 20260906035804 | 69 | 340 | 3.0 | 6.0 | 0.00 | 0.00 | 0.00 | 76 | 1010.9 |
| 20260906035306 | 69 | 352 | 3.0 | 6.0 | 0.00 | 0.00 | 0.00 | 76 | 1010.8 |
| 20260906034304 | 69 | 347 | 3.0 | 6.0 | 0.00 | 0.00 | 0.00 | 76 | 1010.9 |
| 20260906033804 | 69 | 1 | 2.0 | 5.0 | 0.00 | 0.00 | 0.00 | 77 | 1011.0 |
| 20260906033304 | 69 | 349 | 1.0 | 5.0 | 0.00 | 0.00 | 0.00 | 77 | 1011.1 |
| 20260906032804 | 69 | 348 | 2.0 | 5.0 | 0.00 | 0.00 | 0.00 | 77 | 1011.1 |
| 20260906032306 | 69 | 16 | 3.0 | 5.0 | 0.00 | 0.00 | 0.00 | 77 | 1011.1 |
| 20260906031804 | 69 | 347 | 3.0 | 5.0 | 0.00 | 0.00 | 0.00 | 77 | 1010.9 |
| 20260906031304 | 69 | 23 | 2.0 | 3.0 | 0.00 | 0.00 | 0.00 | 77 | 1011.0 |
| 20260906030804 | 69 | 353 | 2.0 | 5.0 | 0.00 | 0.00 | 0.00 | 77 | 1011.0 |
| 20260906030304 | 69 | 349 | 2.0 | 3.0 | 0.00 | 0.00 | 0.00 | 77 | 1010.9 |
| 20260906025803 | 69 | 321 | 2.0 | 6.0 | 0.00 | 0.00 | 0.00 | 76 | 1010.8 |
| 20260906025306 | 69 | 352 | 1.0 | 3.0 | 0.00 | 0.00 | 0.00 | 75 | 1010.8 |
| 20260906024804 | 70 | 3 | 2.0 | 5.0 | 0.00 | 0.00 | 0.00 | 75 | 1010.8 |
| 20260906024303 | 70 | 351 | 2.0 | 5.0 | 0.00 | 0.00 | 0.00 | 75 | 1010.8 |
| 20260906023803 | 70 | 326 | 1.0 | 3.0 | 0.00 | 0.00 | 0.00 | 75 | 1010.7 |
| 20260906023304 | 70 | 357 | 2.0 | 5.0 | 0.00 | 0.00 | 0.00 | 74 | 1010.8 |
| 20260906022804 | 70 | 336 | 1.0 | 3.0 | 0.00 | 0.00 | 0.00 | 74 | 1010.8 |
| 20260906022307 | 70 | 336 | 0.0 | 0.0 | 0.00 | 0.00 | 0.00 | 73 | 1010.7 |
| 20260906021804 | 70 | 336 | 0.0 | 0.0 | 0.00 | 0.00 | 0.00 | 73 | 1010.6 |
| 20260906021304 | 71 | 336 | 0.0 | 0.0 | 0.00 | 0.00 | 0.00 | 73 | 1010.6 |
| 20260906020804 | 71 | 336 | 0.0 | 2.0 | 0.00 | 0.00 | 0.00 | 73 | 1010.6 |
| 20260906020304 | 71 | 336 | 2.0 | 2.0 | 0.00 | 0.00 | 0.00 | 72 | 1010.6 |
| 20260906015804 | 71 | 336 | 1.0 | 2.0 | 0.00 | 0.00 | 0.00 | 72 | 1010.5 |
| 20260906015306 | 71 | 336 | 1.0 | 3.0 | 0.00 | 0.00 | 0.00 | 72 | 1010.5 |
| 20260906014804 | 71 | 4 | 1.0 | 3.0 | 0.00 | 0.00 | 0.00 | 71 | 1010.5 |
| 20260906014304 | 72 | 4 | 2.0 | 5.0 | 0.00 | 0.00 | 0.00 | 71 | 1010.3 |
| 20260906013804 | 72 | 343 | 2.0 | 5.0 | 0.00 | 0.00 | 0.00 | 70 | 1010.3 |
| 20260906013304 | 72 | 333 | 1.0 | 3.0 | 0.00 | 0.00 | 0.00 | 70 | 1010.3 |
| 20260906012804 | 72 | 1 | 1.0 | 3.0 | 0.00 | 0.00 | 0.00 | 70 | 1010.3 |
| 20260906012306 | 73 | 1 | 1.0 | 2.0 | 0.00 | 0.00 | 0.00 | 69 | 1010.3 |
| 20260906011804 | 73 | 1 | 1.0 | 2.0 | 0.00 | 0.00 | 0.00 | 69 | 1010.2 |
| 20260906011304 | 73 | 1 | 0.0 | 2.0 | 0.00 | 0.00 | 0.00 | 68 | 1010.3 |
| 20260906010804 | 73 | 1 | 1.0 | 2.0 | 0.00 | 0.00 | 0.00 | 68 | 1010.2 |
| 20260906010304 | 74 | 1 | 1.0 | 2.0 | 0.00 | 0.00 | 0.00 | 68 | 1010.2 |
| 20260906005804 | 74 | 1 | 0.0 | 2.0 | 0.00 | 0.00 | 0.00 | 67 | 1010.2 |
| 20260906005306 | 74 | 1 | 0.0 | 2.0 | 0.00 | 0.00 | 0.00 | 66 | 1010.1 |
| 20260906004804 | 75 | 1 | 0.0 | 1.0 | 0.00 | 0.00 | 0.00 | 66 | 1010.0 |
| 20260906004304 | 75 | 1 | 0.0 | 2.0 | 0.00 | 0.00 | 0.00 | 66 | 1009.9 |
| 20260906003303 | 76 | 1 | 0.0 | 2.0 | 0.00 | 0.00 | 0.00 | 65 | 1009.9 |
| 20260906002804 | 76 | 1 | 1.0 | 2.0 | 0.00 | 0.00 | 0.00 | 65 | 1010.0 |
| 20260906002306 | 76 | 1 | 0.0 | 2.0 | 0.00 | 0.00 | 0.00 | 64 | 1009.9 |
| 20260906001803 | 76 | 1 | 0.0 | 1.0 | 0.00 | 0.00 | 0.00 | 64 | 1009.9 |
| 20260906001304 | 76 | 1 | 1.0 | 2.0 | 0.00 | 0.00 | 0.00 | 63 | 1009.9 |
| 20260906000804 | 76 | 1 | 2.0 | 3.0 | 0.00 | 0.00 | 0.00 | 62 | 1009.8 |
| 20260905235804 | 77 | 1 | 2.0 | 5.0 | 0.00 | 0.00 | 0.00 | 62 | 1009.7 |
| 20260905235306 | 77 | 22 | 2.0 | 8.0 | 0.00 | 0.00 | 0.00 | 61 | 1009.6 |
| 20260905234804 | 77 | 12 | 3.0 | 6.0 | 0.00 | 0.00 | 0.00 | 61 | 1009.6 |
| 20260905234304 | 77 | 4 | 3.0 | 6.0 | 0.00 | 0.00 | 0.00 | 61 | 1009.5 |
| 20260905233804 | 78 | 5 | 3.0 | 6.0 | 0.00 | 0.00 | 0.00 | 61 | 1009.5 |
| 20260905233304 | 78 | 352 | 5.0 | 8.0 | 0.00 | 0.00 | 0.00 | 61 | 1009.4 |
| 20260905232804 | 78 | 5 | 4.0 | 7.0 | 0.00 | 0.00 | 0.00 | 61 | 1009.4 |
| 20260905232306 | 78 | 4 | 3.0 | 5.0 | 0.00 | 0.00 | 0.00 | 61 | 1009.4 |
| 20260905231804 | 78 | 12 | 3.0 | 6.0 | 0.00 | 0.00 | 0.00 | 61 | 1009.3 |
| 20260905231304 | 79 | 2 | 3.0 | 6.0 | 0.00 | 0.00 | 0.00 | 60 | 1009.3 |
| 20260905230804 | 79 | 9 | 4.0 | 7.0 | 0.00 | 0.00 | 0.00 | 60 | 1009.3 |
| 20260905230304 | 79 | 355 | 4.0 | 7.0 | 0.00 | 0.00 | 0.00 | 60 | 1009.3 |
| 20260905225805 | 79 | 12 | 5.0 | 6.0 | 0.00 | 0.00 | 0.00 | 60 | 1009.3 |
| 20260905225306 | 79 | 17 | 5.0 | 9.0 | 0.00 | 0.00 | 0.00 | 59 | 1009.2 |
| 20260905224304 | 80 | 12 | 6.0 | 12.0 | 0.00 | 0.00 | 0.00 | 59 | 1009.2 |
| 20260905223803 | 80 | 9 | 6.0 | 12.0 | 0.00 | 0.00 | 0.00 | 59 | 1009.1 |
| 20260905223304 | 80 | 4 | 6.0 | 10.0 | 0.00 | 0.00 | 0.00 | 59 | 1009.1 |
| 20260905222803 | 80 | 12 | 4.0 | 8.0 | 0.00 | 0.00 | 0.00 | 59 | 1009.1 |
| 20260905222306 | 81 | 3 | 6.0 | 9.0 | 0.00 | 0.00 | 0.00 | 58 | 1009.0 |
| 20260905220804 | 82 | 352 | 5.0 | 8.0 | 0.00 | 0.00 | 0.00 | 59 | 1008.9 |
| 20260905220304 | 82 | 17 | 6.0 | 12.0 | 0.00 | 0.00 | 0.00 | 58 | 1008.8 |
| 20260905215804 | 82 | 0 | 7.0 | 12.0 | 0.00 | 0.00 | 0.00 | 58 | 1008.7 |
| 20260905215306 | 82 | 5 | 7.0 | 16.0 | 0.00 | 0.00 | 0.00 | 59 | 1008.7 |
| 20260905214804 | 82 | 13 | 5.0 | 9.0 | 0.00 | 0.00 | 0.00 | 59 | 1008.6 |
| 20260905214304 | 82 | 35 | 5.0 | 12.0 | 0.00 | 0.00 | 0.00 | 59 | 1008.6 |
| 20260905213804 | 82 | 18 | 6.0 | 12.0 | 0.00 | 0.00 | 0.00 | 59 | 1008.6 |
| 20260905213304 | 81 | 24 | 6.0 | 12.0 | 0.00 | 0.00 | 0.00 | 60 | 1008.5 |
| 20260905212306 | 81 | 30 | 7.0 | 12.0 | 0.00 | 0.00 | 0.00 | 60 | 1008.4 |
| 20260905211804 | 82 | 13 | 6.0 | 9.0 | 0.00 | 0.00 | 0.00 | 61 | 1008.3 |
| 20260905211303 | 82 | 10 | 5.0 | 10.0 | 0.00 | 0.00 | 0.00 | 61 | 1008.4 |
| 20260905210804 | 82 | 5 | 6.0 | 12.0 | 0.00 | 0.00 | 0.00 | 61 | 1008.3 |
| 20260905210303 | 82 | 8 | 3.0 | 7.0 | 0.00 | 0.00 | 0.00 | 60 | 1008.2 |
| 20260905205804 | 83 | 8 | 4.0 | 9.0 | 0.00 | 0.00 | 0.00 | 60 | 1008.2 |
| 20260905205306 | 83 | 14 | 5.0 | 12.0 | 0.00 | 0.00 | 0.00 | 59 | 1008.3 |
| 20260905204804 | 83 | 22 | 7.0 | 12.0 | 0.00 | 0.00 | 0.00 | 59 | 1008.3 |
| 20260905204303 | 83 | 338 | 7.0 | 10.0 | 0.00 | 0.00 | 0.00 | 60 | 1008.3 |
| 20260905203803 | 83 | 0 | 6.0 | 9.0 | 0.00 | 0.00 | 0.00 | 59 | 1008.3 |
| 20260905203304 | 84 | 29 | 5.0 | 9.0 | 0.00 | 0.00 | 0.00 | 58 | 1008.4 |
| 20260905202306 | 83 | 30 | 5.0 | 9.0 | 0.00 | 0.00 | 0.00 | 58 | 1008.5 |
| 20260905201304 | 83 | 65 | 2.0 | 3.0 | 0.00 | 0.00 | 0.00 | 60 | 1008.4 |
| 20260905200304 | 82 | 6 | 3.0 | 9.0 | 0.00 | 0.00 | 0.00 | 61 | 1008.5 |
| 20260905195804 | 82 | 20 | 8.0 | 12.0 | 0.00 | 0.00 | 0.00 | 61 | 1008.5 |
| 20260905194803 | 82 | 56 | 2.0 | 3.0 | 0.00 | 0.00 | 0.00 | 59 | 1008.6 |
| 20260905194303 | 82 | 6 | 4.0 | 6.0 | 0.00 | 0.00 | 0.00 | 61 | 1008.6 |
| 20260905193804 | 82 | 69 | 1.0 | 3.0 | 0.00 | 0.00 | 0.00 | 61 | 1008.6 |
| 20260905193304 | 82 | 76 | 3.0 | 7.0 | 0.00 | 0.00 | 0.00 | 60 | 1008.7 |
| 20260905192803 | 82 | 46 | 3.0 | 7.0 | 0.00 | 0.00 | 0.00 | 61 | 1008.8 |
| 20260905192306 | 83 | 339 | 2.0 | 9.0 | 0.00 | 0.00 | 0.00 | 60 | 1008.8 |
| 20260905191804 | 83 | 6 | 2.0 | 8.0 | 0.00 | 0.00 | 0.00 | 60 | 1008.8 |
| 20260905191304 | 83 | 322 | 2.0 | 6.0 | 0.00 | 0.00 | 0.00 | 60 | 1008.9 |
| 20260905190804 | 83 | 352 | 5.0 | 10.0 | 0.00 | 0.00 | 0.00 | 60 | 1008.9 |
| 20260905190304 | 83 | 34 | 3.0 | 8.0 | 0.00 | 0.00 | 0.00 | 58 | 1009.0 |
| 20260905185804 | 83 | 36 | 2.0 | 7.0 | 0.00 | 0.00 | 0.00 | 58 | 1009.0 |
| 20260905185306 | 83 | 13 | 5.0 | 8.0 | 0.00 | 0.00 | 0.00 | 60 | 1009.1 |
| 20260905184804 | 83 | 208 | 1.0 | 6.0 | 0.00 | 0.00 | 0.00 | 61 | 1009.2 |
| 20260905184303 | 82 | 64 | 2.0 | 8.0 | 0.00 | 0.00 | 0.00 | 60 | 1009.3 |
| 20260905183803 | 82 | 18 | 3.0 | 7.0 | 0.00 | 0.00 | 0.00 | 62 | 1009.4 |
| 20260905183304 | 82 | 300 | 1.0 | 3.0 | 0.00 | 0.00 | 0.00 | 62 | 1009.4 |
| 20260905182804 | 82 | 30 | 2.0 | 7.0 | 0.00 | 0.00 | 0.00 | 61 | 1009.5 |
| 20260905182306 | 81 | 310 | 4.0 | 6.0 | 0.00 | 0.00 | 0.00 | 63 | 1009.6 |
| 20260905181804 | 81 | 352 | 2.0 | 6.0 | 0.00 | 0.00 | 0.00 | 63 | 1009.6 |
| 20260905181304 | 81 | 14 | 5.0 | 8.0 | 0.00 | 0.00 | 0.00 | 65 | 1009.7 |
| 20260905180804 | 81 | 349 | 3.0 | 5.0 | 0.00 | 0.00 | 0.00 | 65 | 1009.7 |
| 20260905180304 | 81 | 329 | 4.0 | 7.0 | 0.00 | 0.00 | 0.00 | 67 | 1009.7 |
| 20260905175803 | 80 | 358 | 4.0 | 7.0 | 0.00 | 0.00 | 0.00 | 68 | 1009.7 |
| 20260905175306 | 80 | 7 | 2.0 | 5.0 | 0.00 | 0.00 | 0.00 | 69 | 1009.7 |
| 20260905174804 | 80 | 3 | 4.0 | 8.0 | 0.00 | 0.00 | 0.00 | 68 | 1009.7 |
| 20260905174304 | 80 | 10 | 3.0 | 8.0 | 0.00 | 0.00 | 0.00 | 68 | 1009.8 |
| 20260905173804 | 80 | 4 | 4.0 | 7.0 | 0.00 | 0.00 | 0.00 | 69 | 1009.8 |
| 20260905173304 | 80 | 10 | 4.0 | 9.0 | 0.00 | 0.00 | 0.00 | 68 | 1009.9 |
| 20260905172804 | 80 | 40 | 2.0 | 9.0 | 0.00 | 0.00 | 0.00 | 68 | 1009.9 |
| 20260905172305 | 80 | 350 | 5.0 | 8.0 | 0.00 | 0.00 | 0.00 | 69 | 1010.0 |
| 20260905171304 | 81 | 37 | 5.0 | 9.0 | 0.00 | 0.00 | 0.00 | 69 | 1009.9 |
| 20260905170803 | 81 | 66 | 5.0 | 7.0 | 0.00 | 0.00 | 0.00 | 68 | 1010.0 |
| 20260905170304 | 81 | 23 | 3.0 | 6.0 | 0.00 | 0.00 | 0.00 | 68 | 1010.0 |
| 20260905165804 | 81 | 12 | 6.0 | 9.0 | 0.00 | 0.00 | 0.00 | 70 | 1010.0 |
| 20260905165306 | 81 | 20 | 5.0 | 7.0 | 0.00 | 0.00 | 0.00 | 68 | 1010.0 |
| 20260905164304 | 81 | 79 | 2.0 | 6.0 | 0.00 | 0.00 | 0.00 | 67 | 1010.0 |
| 20260905163804 | 81 | 344 | 4.0 | 6.0 | 0.00 | 0.00 | 0.00 | 68 | 1009.9 |
| 20260905163304 | 81 | 28 | 4.0 | 8.0 | 0.00 | 0.00 | 0.00 | 68 | 1010.1 |
| 20260905162306 | 81 | 75 | 0.0 | 3.0 | 0.00 | 0.00 | 0.00 | 67 | 1010.3 |
| 20260905161804 | 81 | 10 | 2.0 | 6.0 | 0.00 | 0.00 | 0.00 | 67 | 1010.3 |
| 20260905161303 | 81 | 7 | 5.0 | 8.0 | 0.00 | 0.00 | 0.00 | 68 | 1010.4 |
| 20260905160804 | 81 | 1 | 2.0 | 6.0 | 0.00 | 0.00 | 0.00 | 67 | 1010.4 |
| 20260905155804 | 80 | 9 | 3.0 | 8.0 | 0.00 | 0.00 | 0.00 | 67 | 1010.5 |
| 20260905155306 | 80 | 11 | 6.0 | 10.0 | 0.00 | 0.00 | 0.00 | 67 | 1010.5 |
| 20260905154804 | 80 | 23 | 3.0 | 5.0 | 0.00 | 0.00 | 0.00 | 66 | 1010.6 |
| 20260905154304 | 80 | 25 | 4.0 | 7.0 | 0.00 | 0.00 | 0.00 | 67 | 1010.7 |
| 20260905153804 | 80 | 23 | 4.0 | 7.0 | 0.00 | 0.00 | 0.00 | 67 | 1010.7 |
| 20260905152804 | 80 | 8 | 3.0 | 7.0 | 0.00 | 0.00 | 0.00 | 65 | 1010.8 |
| 20260905152306 | 80 | 50 | 3.0 | 8.0 | 0.00 | 0.00 | 0.00 | 65 | 1010.8 |
| 20260905151804 | 81 | 11 | 4.0 | 5.0 | 0.00 | 0.00 | 0.00 | 66 | 1010.8 |
| 20260905151303 | 81 | 14 | 5.0 | 8.0 | 0.00 | 0.00 | 0.00 | 65 | 1010.7 |
| 20260905150804 | 81 | 12 | 5.0 | 8.0 | 0.00 | 0.00 | 0.00 | 65 | 1010.7 |
| 20260905150304 | 81 | 10 | 3.0 | 7.0 | 0.00 | 0.00 | 0.00 | 67 | 1010.6 |
| 20260905145804 | 80 | 42 | 4.0 | 7.0 | 0.00 | 0.00 | 0.00 | 66 | 1010.6 |
| 20260905144804 | 80 | 20 | 5.0 | 9.0 | 0.00 | 0.00 | 0.00 | 67 | 1010.6 |
| 20260905143803 | 80 | 8 | 5.0 | 10.0 | 0.00 | 0.00 | 0.00 | 67 | 1010.5 |
| 20260905143304 | 80 | 73 | 3.0 | 7.0 | 0.00 | 0.00 | 0.00 | 68 | 1010.4 |
| 20260905142306 | 79 | 60 | 2.0 | 5.0 | 0.00 | 0.00 | 0.00 | 69 | 1010.2 |
| 20260905141804 | 79 | 24 | 4.0 | 9.0 | 0.00 | 0.00 | 0.00 | 70 | 1010.1 |
| 20260905140803 | 79 | 72 | 3.0 | 6.0 | 0.00 | 0.00 | 0.00 | 71 | 1010.2 |
| 20260905140304 | 79 | 60 | 4.0 | 8.0 | 0.00 | 0.00 | 0.00 | 72 | 1010.0 |
| 20260905135804 | 78 | 12 | 3.0 | 7.0 | 0.00 | 0.00 | 0.00 | 71 | 1010.0 |
| 20260905134804 | 78 | 44 | 3.0 | 6.0 | 0.00 | 0.00 | 0.00 | 74 | 1010.2 |
| 20260905134304 | 78 | 46 | 3.0 | 5.0 | 0.00 | 0.00 | 0.00 | 74 | 1010.2 |
| 20260905133804 | 78 | 26 | 2.0 | 6.0 | 0.00 | 0.00 | 0.00 | 74 | 1010.2 |
| 20260905132804 | 78 | 62 | 4.0 | 7.0 | 0.00 | 0.00 | 0.00 | 73 | 1010.3 |
| 20260905132306 | 78 | 24 | 5.0 | 10.0 | 0.00 | 0.00 | 0.00 | 74 | 1010.3 |
| 20260905131804 | 78 | 11 | 3.0 | 6.0 | 0.00 | 0.00 | 0.00 | 75 | 1010.3 |
| 20260905131304 | 78 | 9 | 4.0 | 8.0 | 0.00 | 0.00 | 0.00 | 74 | 1010.2 |
| 20260905130804 | 78 | 40 | 5.0 | 10.0 | 0.00 | 0.00 | 0.00 | 74 | 1010.1 |
| 20260905125306 | 78 | 51 | 5.0 | 9.0 | 0.00 | 0.00 | 0.00 | 77 | 1010.0 |
| 20260905124304 | 77 | 26 | 5.0 | 7.0 | 0.00 | 0.00 | 0.00 | 79 | 1009.8 |
| 20260905123804 | 76 | 52 | 5.0 | 9.0 | 0.00 | 0.00 | 0.00 | 81 | 1009.7 |
| 20260905123303 | 75 | 68 | 5.0 | 9.0 | 0.00 | 0.00 | 0.00 | 83 | 1009.7 |
| 20260905122804 | 75 | 9 | 7.0 | 12.0 | 0.00 | 0.00 | 0.00 | 84 | 1009.8 |
| 20260905121804 | 74 | 2 | 2.0 | 12.0 | 0.00 | 0.00 | 0.00 | 88 | 1009.8 |
| 20260905120804 | 74 | 20 | 6.0 | 10.0 | 0.00 | 0.00 | 0.00 | 90 | 1009.8 |
| 20260905120304 | 74 | 19 | 5.0 | 10.0 | 0.00 | 0.01 | 0.00 | 91 | 1009.8 |
| 20260905115803 | 74 | 17 | 6.0 | 9.0 | 0.00 | 0.01 | 0.00 | 92 | 1009.8 |
| 20260905115306 | 73 | 28 | 6.0 | 12.0 | 0.00 | 0.01 | 0.00 | 92 | 1009.7 |
| 20260905114804 | 73 | 1 | 5.0 | 10.0 | 0.00 | 0.01 | 0.00 | 93 | 1009.6 |
| 20260905114304 | 73 | 9 | 6.0 | 9.0 | 0.00 | 0.01 | 0.00 | 93 | 1009.5 |
| 20260905113804 | 73 | 352 | 6.0 | 9.0 | 0.00 | 0.01 | 0.00 | 93 | 1009.6 |
| 20260905113304 | 73 | 352 | 5.0 | 9.0 | 0.00 | 0.01 | 0.00 | 93 | 1009.4 |
| 20260905112804 | 73 | 6 | 6.0 | 8.0 | 0.00 | 0.01 | 0.00 | 93 | 1009.4 |
| 20260905112305 | 73 | 6 | 4.0 | 7.0 | 0.00 | 0.01 | 0.00 | 93 | 1009.4 |
| 20260905111804 | 73 | 2 | 5.0 | 8.0 | 0.00 | 0.01 | 0.00 | 93 | 1009.2 |
| 20260905110804 | 72 | 5 | 4.0 | 6.0 | 0.00 | 0.01 | 0.00 | 93 | 1009.1 |
| 20260905110305 | 72 | 354 | 3.0 | 6.0 | 0.00 | 0.01 | 0.00 | 93 | 1009.1 |
| 20260905105804 | 72 | 328 | 3.0 | 5.0 | 0.00 | 0.01 | 0.00 | 93 | 1009.1 |
| 20260905105306 | 72 | 326 | 2.0 | 3.0 | 0.00 | 0.01 | 0.00 | 93 | 1009.1 |
| 20260905104804 | 72 | 322 | 3.0 | 6.0 | 0.00 | 0.01 | 0.00 | 93 | 1009.1 |
| 20260905104304 | 72 | 294 | 2.0 | 5.0 | 0.00 | 0.01 | 0.00 | 93 | 1009.0 |
| 20260905103804 | 72 | 314 | 2.0 | 5.0 | 0.00 | 0.01 | 0.00 | 93 | 1008.9 |
| 20260905103304 | 72 | 318 | 1.0 | 3.0 | 0.00 | 0.01 | 0.00 | 92 | 1008.8 |
| 20260905102804 | 73 | 322 | 2.0 | 3.0 | 0.00 | 0.01 | 0.00 | 93 | 1008.8 |
| 20260905102306 | 73 | 322 | 2.0 | 6.0 | 0.00 | 0.01 | 0.00 | 92 | 1008.8 |
| 20260905101804 | 73 | 354 | 3.0 | 6.0 | 0.00 | 0.01 | 0.00 | 92 | 1008.8 |
| 20260905100304 | 73 | 75 | 2.0 | 3.0 | 0.00 | 0.01 | 0.00 | 92 | 1008.7 |
| 20260905095804 | 73 | 75 | 2.0 | 3.0 | 0.00 | 0.01 | 0.00 | 92 | 1008.7 |
| 20260905095305 | 73 | 30 | 1.0 | 3.0 | 0.00 | 0.01 | 0.00 | 92 | 1008.6 |
| 20260905093804 | 73 | 324 | 3.0 | 6.0 | 0.00 | 0.02 | 0.00 | 92 | 1008.4 |
| 20260905092803 | 73 | 311 | 3.0 | 7.0 | 0.00 | 0.02 | 0.00 | 92 | 1008.4 |
| 20260905091804 | 73 | 315 | 3.0 | 5.0 | 0.00 | 0.02 | 0.00 | 91 | 1008.5 |
| 20260905091304 | 73 | 315 | 2.0 | 3.0 | 0.00 | 0.02 | 0.00 | 91 | 1008.5 |